Back to catalog

GALAXY 3

AliveCommunicationsGEO
NORAD 15308·PAYLOAD·🇺🇸 United States

Launched Sep 21, 1984 from Cape Canaveral Space Force Station

Loading…

TLE

FreshSource: Space-Track

Epoch: Sep 14, 2026, 05:33 UTC

1 15308U 84101A   26257.23139093 -.00000108  00000-0  00000-0 0  9993
2 15308  14.0494 344.4356 0003569  32.3959 322.9553  0.99832135 47363

Track GALAXY 3 in real time with AllMySat

Download on the App Store